Location: �couen
(49.0206°N, 2.3831°E)
Time: 15:04:14
(UTC+00:00)

FENGYUN 1C DEB - Pass Details

Date: 01 April 2023
Orbit: 840 x 948 km, 98.8° (Epoch: 28 May)

Event Time Altitude Azimuth Distance (km) Brightness Sun altitude
Rises 20:14:43 0° 189° (S) 3,586 ? -18.3°
Reaches altitude 10° 20:17:22 10° 197° (SSW) 2,636 ? -18.7°
Maximum altitude 20:22:46 37° 264° (W) 1,403 ? -19.4°
Drops below altitude 10° 20:28:06 10° 330° (NNW) 2,592 ? -20.2°
Sets 20:30:41 0° 339° (NNW) 3,520 ? -20.5°
